W7KKE-3 Weather Reports


time (UTC)temp
F
wind
direction
speed
knots
gust
knots
rain 1hr
in
rain 24hr
in
rain mn
in
humidity
%
barometer
mb
20260902232826 63 200 6.1 11.3 0.00 0.48 0.48 87 1003.4
20260902232325 62 186 7.8 13.9 0.00 0.48 0.48 87 1003.4
20260902231826 63 186 3.5 13.9 0.00 0.48 0.48 88 1003.3
20260902231326 63 180 7.0 13.9 0.00 0.48 0.48 87 1003.3
20260902230826 63 194 9.6 13.0 0.00 0.48 0.48 88 1003.2
20260902225826 63 222 7.0 9.6 0.00 0.48 0.48 89 1003.1
20260902225325 63 196 3.5 12.2 0.00 0.48 0.48 89 1003.1
20260902224826 63 229 7.8 12.2 0.00 0.48 0.48 89 1003.1
20260902224326 63 182 5.2 12.2 0.00 0.48 0.48 89 1003.0
20260902223325 63 186 6.1 12.2 0.01 0.48 0.48 89 1002.8
20260902222826 63 256 7.0 12.2 0.01 0.48 0.48 89 1002.8
20260902222325 62 196 5.2 9.6 0.01 0.48 0.48 90 1002.8
20260902221826 62 187 2.6 11.3 0.01 0.48 0.48 90 1002.8
20260902221326 61 196 4.3 11.3 0.01 0.48 0.48 90 1002.7
20260902220325 61 205 4.3 11.3 0.01 0.48 0.48 90 1002.6
20260902215826 60 191 3.5 11.3 0.01 0.48 0.48 90 1002.6
20260902215325 60 201 6.1 11.3 0.01 0.48 0.48 90 1002.6
20260902214825 60 190 1.7 11.3 0.01 0.48 0.48 90 1002.7
20260902214326 60 184 4.3 11.3 0.01 0.48 0.48 90 1002.7
20260902213826 60 201 5.2 11.3 0.00 0.47 0.48 90 1002.6
20260902213325 60 211 4.3 11.3 0.00 0.47 0.47 90 1002.5
20260902212825 60 191 2.6 13.0 0.00 0.47 0.47 90 1002.4
20260902212325 60 203 4.3 13.0 0.00 0.47 0.47 90 1002.3
20260902211825 60 212 3.5 13.0 0.00 0.47 0.47 90 1002.2
20260902211326 60 193 3.5 12.2 0.00 0.47 0.47 90 1002.2
20260902210825 60 242 7.0 14.8 0.01 0.47 0.47 90 1002.2
20260902210326 59 186 1.7 14.8 0.01 0.47 0.47 90 1002.2
20260902205827 59 214 5.2 14.8 0.01 0.47 0.47 90 1002.3
20260902205325 59 194 7.0 9.6 0.01 0.47 0.47 90 1002.2
20260902204825 59 159 6.1 15.6 0.01 0.47 0.47 90 1002.1
20260902204326 59 212 7.8 15.6 0.01 0.47 0.47 90 1002.1
20260902203825 59 176 7.0 15.6 0.02 0.47 0.47 90 1002.0
20260902203325 59 191 5.2 13.9 0.02 0.47 0.47 90 1002.0
20260902202826 59 189 6.1 13.9 0.03 0.47 0.47 90 1002.0
20260902202325 59 137 7.8 13.0 0.03 0.47 0.47 90 1001.7
20260902201825 59 201 7.0 24.3 0.03 0.47 0.47 90 1001.8
20260902201326 59 203 8.7 24.3 0.03 0.47 0.47 90 1001.7
20260902200825 59 190 8.7 24.3 0.04 0.47 0.47 90 1001.6
20260902200325 59 233 14.8 23.5 0.04 0.47 0.47 90 1001.5
20260902195827 59 172 12.2 26.1 0.07 0.46 0.46 90 1001.7
20260902195325 59 179 12.2 26.1 0.07 0.46 0.46 90 1001.6
20260902194859 59 193 9.6 26.1 0.11 0.46 0.46 90 1001.7
20260902194825 59 193 9.6 26.1 0.11 0.46 0.46 90 1001.7
20260902194326 59 187 12.2 30.4 0.11 0.46 0.46 90 1001.7
20260902193825 59 191 7.0 30.4 0.13 0.46 0.46 90 1001.6
20260902193325 59 218 10.4 30.4 0.13 0.45 0.45 89 1001.7
20260902192827 59 198 11.3 27.8 0.14 0.45 0.45 89 1001.6
20260902192325 59 149 7.8 18.2 0.14 0.45 0.45 89 1001.7
20260902191826 59 173 6.1 13.9 0.16 0.44 0.44 89 1001.4
20260902191326 59 168 7.8 9.6 0.16 0.44 0.44 89 1001.4
20260902190825 59 190 4.3 7.8 0.14 0.43 0.44 89 1001.3
20260902190325 59 207 4.3 12.2 0.14 0.43 0.43 89 1001.2
20260902185827 59 175 4.3 12.2 0.11 0.41 0.41 89 1001.1
20260902185325 59 201 6.1 12.2 0.11 0.40 0.40 89 1001.0
20260902184825 59 155 4.3 15.6 0.07 0.37 0.38 89 1001.0
20260902184326 59 154 5.2 15.6 0.07 0.36 0.36 89 1000.9
20260902183825 60 170 3.5 15.6 0.05 0.34 0.34 89 1000.7
20260902183325 60 177 6.1 13.9 0.05 0.32 0.33 89 1000.6
20260902182827 59 109 5.2 13.9 0.04 0.31 0.31 89 1000.7
20260902182325 60 191 5.2 8.7 0.04 0.30 0.30 89 1000.7
20260902181825 59 144 3.5 13.9 0.03 0.29 0.29 89 1000.6
20260902181326 59 137 4.3 13.9 0.03 0.28 0.28 89 1000.6
20260902180825 59 180 2.6 13.9 0.06 0.28 0.28 89 1000.5
20260902180325 59 147 3.5 12.2 0.06 0.28 0.28 89 1000.4
20260902175827 59 196 5.2 11.3 0.07 0.28 0.28 89 1000.3
20260902175325 59 173 5.2 11.3 0.07 0.28 0.28 89 1000.3
20260902174825 59 68 3.5 11.3 0.10 0.28 0.28 89 1000.2
20260902174326 59 156 3.5 13.0 0.10 0.28 0.28 89 1000.2
20260902173825 59 161 2.6 13.0 0.10 0.28 0.28 89 1000.2
20260902173325 59 173 1.7 13.0 0.10 0.28 0.28 89 1000.3
20260902172827 59 172 1.7 11.3 0.11 0.27 0.27 88 1000.2
20260902172325 59 86 4.3 9.6 0.11 0.26 0.26 88 1000.2
20260902171825 59 183 2.6 13.9 0.11 0.26 0.26 88 1000.1
20260902171326 59 169 5.2 13.9 0.11 0.25 0.25 88 1000.1
20260902170825 59 191 2.6 13.9 0.08 0.24 0.25 88 1000.2
20260902170325 59 109 4.3 16.5 0.08 0.23 0.23 88 1000.3
20260902165826 59 64 4.3 16.5 0.08 0.22 0.22 88 1000.4
20260902165325 59 121 4.3 16.5 0.08 0.21 0.21 88 1000.4
20260902164825 59 189 5.2 7.0 0.05 0.20 0.20 88 1000.6
20260902164326 59 84 2.6 6.1 0.05 0.19 0.19 88 1000.7
20260902163825 59 75 2.6 7.8 0.05 0.18 0.18 88 1000.8
20260902163327 59 96 2.6 7.8 0.05 0.17 0.18 88 1000.9
20260902162827 59 116 1.7 7.8 0.04 0.16 0.16 88 1001.0
20260902162325 59 138 3.5 7.0 0.04 0.15 0.15 88 1001.0
20260902161825 59 138 2.6 7.0 0.04 0.15 0.15 88 1001.1
20260902161326 59 85 1.7 7.0 0.04 0.14 0.15 88 1001.3
20260902160825 59 102 3.5 6.1 0.06 0.14 0.14 88 1001.3
20260902160326 59 105 2.6 8.7 0.06 0.14 0.14 88 1001.5
20260902155826 59 124 1.7 8.7 0.07 0.13 0.14 88 1001.7
20260902155325 59 123 2.6 8.7 0.07 0.13 0.13 88 1001.9
20260902154826 59 156 2.6 6.1 0.09 0.13 0.13 87 1001.9
20260902154326 59 130 1.7 6.1 0.09 0.13 0.13 87 1002.0
20260902153825 59 190 0.9 6.1 0.10 0.12 0.12 87 1002.0
20260902153325 59 183 1.7 5.2 0.10 0.12 0.12 87 1002.1
20260902152826 59 198 1.7 5.2 0.10 0.12 0.12 87 1002.0
20260902152325 59 109 0.9 5.2 0.10 0.12 0.12 87 1002.0
20260902151825 59 110 1.7 5.2 0.09 0.11 0.11 87 1002.1
20260902151326 59 99 2.6 5.2 0.09 0.10 0.11 87 1002.0
20260902150825 59 98 0.9 5.2 0.07 0.10 0.10 87 1001.9
20260902150325 59 99 0.9 5.2 0.07 0.10 0.09 86 1001.9
20260902145826 60 119 1.7 4.3 0.05 0.07 0.07 86 1002.0
20260902145325 59 116 1.7 4.3 0.05 0.06 0.06 86 1002.1
20260902144825 60 107 1.7 5.2 0.03 0.05 0.05 86 1002.1
20260902144326 60 196 1.7 5.2 0.03 0.04 0.04 86 1002.2
20260902143826 60 184 2.6 5.2 0.01 0.04 0.03 86 1002.2
20260902143325 60 120 3.5 4.3 0.01 0.04 0.02 85 1002.1
20260902142826 60 68 1.7 6.1 0.00 0.04 0.02 85 1002.1
20260902142325 60 155 0.9 6.1 0.00 0.04 0.01 85 1002.0
20260902141825 60 173 0.9 6.1 0.00 0.04 0.01 85 1002.1
20260902141326 60 40 1.7 6.1 0.00 0.04 0.01 85 1002.0
20260902140825 60 98 3.5 13.0 0.01 0.04 0.01 85 1002.2
20260902140325 60 169 2.6 13.0 0.01 0.04 0.01 86 1002.3
20260902135826 60 204 5.2 13.0 0.01 0.04 0.01 86 1002.5
20260902135325 59 191 6.1 12.2 0.01 0.04 0.01 86 1002.5
20260902134825 59 172 4.3 11.3 0.01 0.04 0.01 86 1002.5
20260902134326 60 166 2.6 9.6 0.01 0.04 0.01 86 1002.5
20260902133825 59 144 4.3 6.1 0.01 0.04 0.01 86 1002.5
20260902133325 59 170 1.7 14.8 0.01 0.04 0.01 86 1002.5
20260902132826 60 93 0.9 14.8 0.01 0.04 0.01 86 1002.5
20260902132325 60 207 3.5 14.8 0.01 0.04 0.01 86 1002.6
20260902131825 60 128 3.5 10.4 0.01 0.04 0.01 85 1002.7
20260902131326 60 154 5.2 9.6 0.01 0.04 0.01 85 1002.8
20260902130825 60 182 4.3 9.6 0.00 0.04 0.01 85 1002.8
20260902130325 60 224 4.3 9.6 0.00 0.04 0.00 85 1002.9
20260902125826 60 180 2.6 8.7 0.00 0.04 0.00 84 1003.0
20260902125325 60 194 3.5 8.7 0.00 0.04 0.00 84 1003.0
20260902124917 61 169 2.6 9.6 0.00 0.04 0.00 83 1003.2
20260902124825 61 169 2.6 9.6 0.00 0.04 0.00 83 1003.2
20260902124326 61 180 5.2 9.6 0.00 0.04 0.00 83 1003.3
20260902123825 61 173 4.3 9.6 0.00 0.04 0.00 83 1003.3
20260902123325 61 221 3.5 14.8 0.00 0.04 0.00 82 1003.3
20260902122826 61 166 2.6 14.8 0.00 0.04 0.00 82 1003.2
20260902121825 61 151 7.0 10.4 0.00 0.04 0.00 81 1003.2
20260902121327 61 197 3.5 8.7 0.00 0.04 0.00 82 1003.3
20260902120825 61 147 2.6 8.7 0.00 0.04 0.00 82 1003.5
20260902120325 61 193 5.2 8.7 0.00 0.04 0.00 82 1003.4
20260902115826 61 208 3.5 15.6 0.00 0.04 0.00 82 1003.5
20260902115325 61 163 3.5 15.6 0.00 0.04 0.00 82 1003.5
20260902114825 61 166 2.6 15.6 0.00 0.04 0.00 82 1003.6
20260902114326 61 149 6.1 7.0 0.00 0.04 0.00 82 1003.7
20260902113825 61 207 3.5 9.6 0.00 0.04 0.00 82 1003.9
20260902113325 61 113 2.6 9.6 0.00 0.04 0.00 82 1004.0
20260902112826 61 161 3.5 9.6 0.00 0.04 0.00 82 1004.1
20260902112325 61 159 4.3 12.2 0.00 0.04 0.00 83 1004.0
20260902111825 61 144 5.2 12.2 0.00 0.04 0.00 83 1004.1
20260902111326 61 190 3.5 12.2 0.00 0.04 0.00 83 1004.2
20260902110827 61 184 3.5 10.4 0.00 0.04 0.00 83 1004.3
20260902110325 61 149 4.3 8.7 0.00 0.04 0.00 83 1004.4
20260902105826 61 190 5.2 8.7 0.00 0.04 0.00 84 1004.5
20260902105325 61 201 3.5 9.6 0.00 0.04 0.00 84 1004.6
20260902104825 61 84 3.5 9.6 0.00 0.04 0.00 84 1004.6
20260902104326 61 100 2.6 9.6 0.00 0.04 0.00 84 1004.6
20260902103825 61 170 3.5 7.0 0.00 0.04 0.00 84 1004.7
20260902103325 61 98 2.6 11.3 0.00 0.04 0.00 84 1004.8
20260902102826 61 183 0.9 11.3 0.00 0.04 0.00 84 1004.9
20260902102325 61 173 4.3 11.3 0.00 0.04 0.00 84 1004.9
20260902101825 61 200 5.2 14.8 0.00 0.04 0.00 84 1005.0
20260902101326 61 212 5.2 14.8 0.00 0.04 0.00 84 1005.2
20260902100825 61 135 3.5 14.8 0.00 0.04 0.00 85 1005.3
20260902100325 61 109 5.2 7.8 0.00 0.04 0.00 85 1005.3
20260902095826 61 189 3.5 7.8 0.00 0.04 0.00 85 1005.3
20260902095325 61 208 1.7 11.3 0.00 0.04 0.00 85 1005.4
20260902094825 61 135 5.2 11.3 0.00 0.04 0.00 85 1005.5
20260902094326 61 200 4.3 11.3 0.00 0.04 0.00 85 1005.5
20260902093825 61 189 4.3 9.6 0.00 0.04 0.00 85 1005.6
20260902093325 61 194 4.3 9.6 0.00 0.04 0.00 85 1005.6
20260902092826 61 212 2.6 9.6 0.00 0.04 0.00 85 1005.7
20260902092325 61 131 3.5 13.9 0.00 0.04 0.00 85 1005.8
20260902091825 61 141 2.6 13.9 0.00 0.04 0.00 85 1005.8
20260902091326 61 191 6.1 13.9 0.00 0.04 0.00 85 1005.8
20260902090825 61 205 7.0 12.2 0.00 0.04 0.00 85 1005.8
20260902090325 61 149 5.2 12.2 0.00 0.04 0.00 85 1005.9
20260902085857 61 201 2.6 17.4 0.00 0.04 0.00 85 1005.9
20260902085826 61 201 2.6 17.4 0.00 0.04 0.00 85 1005.9
20260902085325 61 214 0.9 17.4 0.00 0.04 0.00 85 1006.0
20260902084825 61 158 6.1 17.4 0.00 0.04 0.00 85 1006.1
20260902084326 61 186 8.7 13.0 0.00 0.04 0.00 85 1006.2
20260902083825 61 208 7.0 7.8 0.00 0.04 0.00 85 1006.2
20260902083325 61 218 0.0 7.8 0.00 0.04 0.00 85 1006.2
20260902082826 61 193 2.6 12.2 0.00 0.04 0.00 85 1006.2
20260902082325 61 151 1.7 12.2 0.00 0.04 0.00 85 1006.3
20260902081825 61 177 6.1 12.2 0.00 0.04 0.00 85 1006.3
20260902081326 61 203 3.5 11.3 0.00 0.04 0.00 85 1006.3
20260902080825 61 183 4.3 11.3 0.00 0.04 0.00 85 1006.3
20260902080325 61 236 5.2 7.8 0.00 0.04 0.00 85 1006.3
20260902075826 61 201 3.5 13.0 0.00 0.04 0.00 85 1006.4
20260902075325 61 193 4.3 13.0 0.00 0.04 0.00 85 1006.5
20260902074825 61 127 4.3 13.0 0.00 0.04 0.00 85 1006.5
20260902074326 61 218 3.5 10.4 0.00 0.04 0.00 85 1006.6
20260902073825 61 155 3.5 12.2 0.00 0.04 0.00 85 1006.6
20260902073325 61 109 6.1 12.2 0.00 0.04 0.00 85 1006.7
20260902072858 61 184 1.7 12.2 0.00 0.04 0.00 85 1006.7
20260902072826 61 184 1.7 12.2 0.00 0.04 0.00 85 1006.7
20260902072325 61 197 7.8 11.3 0.00 0.04 0.00 85 1006.8
20260902071825 61 163 7.0 11.3 0.00 0.04 0.00 85 1006.8
20260902071326 61 144 2.6 11.3 0.00 0.04 0.00 85 1006.9
20260902070825 61 149 2.6 10.4 0.00 0.04 0.00 85 1006.9
20260902070325 61 210 0.9 8.7 0.00 0.04 0.00 85 1007.0
20260902065826 61 193 2.6 8.7 0.00 0.04 0.00 85 1007.0
20260902065325 61 201 1.7 8.7 0.00 0.04 0.04 86 1007.0
20260902064825 61 179 4.3 13.0 0.00 0.04 0.04 86 1007.1
20260902064326 61 184 5.2 13.0 0.00 0.04 0.04 86 1007.1
20260902063825 61 134 3.5 13.0 0.00 0.04 0.04 86 1007.1
20260902063325 60 182 6.1 7.8 0.00 0.04 0.04 86 1007.1
20260902062826 61 200 2.6 7.0 0.00 0.04 0.04 86 1007.1
20260902062325 61 207 3.5 7.0 0.00 0.04 0.04 86 1007.0
20260902061825 61 180 2.6 11.3 0.00 0.04 0.04 86 1007.1
20260902061326 61 158 0.9 11.3 0.00 0.04 0.04 86 1007.2
20260902060825 61 60 2.6 11.3 0.00 0.04 0.04 86 1007.2
20260902060325 61 175 2.6 10.4 0.00 0.04 0.04 86 1007.3
20260902055325 61 179 3.5 14.8 0.00 0.04 0.04 86 1007.3
20260902054825 61 180 1.7 14.8 0.00 0.04 0.04 86 1007.4
20260902054326 61 193 2.6 8.7 0.00 0.04 0.04 87 1007.4
20260902053825 61 144 3.5 7.8 0.00 0.04 0.04 87 1007.4
20260902053325 61 133 4.3 7.8 0.00 0.04 0.04 87 1007.5
20260902052826 61 187 3.5 14.8 0.00 0.04 0.04 87 1007.5
20260902052325 61 186 4.3 14.8 0.00 0.04 0.04 87 1007.5
20260902051825 61 46 0.0 14.8 0.00 0.04 0.04 87 1007.6
20260902051326 61 127 4.3 11.3 0.00 0.04 0.04 87 1007.6
20260902050825 61 190 6.1 15.6 0.00 0.04 0.04 87 1007.6
20260902050325 62 156 3.5 15.6 0.00 0.04 0.04 87 1007.5
20260902045826 62 200 7.0 15.6 0.00 0.04 0.04 87 1007.6
20260902044825 61 180 3.5 12.2 0.00 0.04 0.04 87 1007.7
20260902044326 61 172 5.2 12.2 0.00 0.04 0.04 87 1007.8
20260902043826 61 207 4.3 12.2 0.00 0.04 0.04 87 1007.7
20260902043325 61 179 3.5 12.2 0.00 0.04 0.04 87 1007.7
20260902042826 61 205 3.5 11.3 0.00 0.04 0.04 87 1007.7
20260902042325 61 162 4.3 11.3 0.00 0.04 0.04 87 1007.8
20260902041825 61 165 6.1 11.3 0.00 0.04 0.04 87 1007.9
20260902041326 61 175 7.0 13.9 0.00 0.04 0.04 87 1007.9
20260902040825 61 163 6.1 13.9 0.00 0.04 0.04 87 1007.9
20260902040325 61 156 3.5 13.9 0.00 0.04 0.04 87 1007.8
20260902035826 61 208 8.7 13.9 0.00 0.04 0.04 87 1007.8
20260902034825 61 163 3.5 13.9 0.00 0.04 0.04 87 1007.8
20260902034326 61 194 6.1 16.5 0.00 0.04 0.04 87 1007.8
20260902033825 61 194 6.1 16.5 0.00 0.04 0.04 87 1007.9
20260902033325 61 176 7.8 16.5 0.00 0.04 0.04 87 1007.9
20260902032826 61 180 4.3 13.9 0.00 0.04 0.04 87 1007.9
20260902031825 61 203 5.2 9.6 0.00 0.04 0.04 87 1008.0
20260902031326 61 196 3.5 7.8 0.00 0.04 0.04 87 1007.9
20260902030825 61 193 2.6 7.8 0.00 0.04 0.04 87 1007.9
20260902030325 61 190 3.5 7.8 0.00 0.04 0.04 87 1007.8
20260902025826 61 187 2.6 7.0 0.00 0.04 0.04 87 1007.8
20260902025325 61 165 4.3 4.3 0.00 0.04 0.04 87 1007.7
20260902024825 61 210 0.0 8.7 0.00 0.04 0.04 87 1007.8
20260902024326 61 198 3.5 8.7 0.00 0.04 0.04 87 1007.8
20260902023825 61 183 4.3 8.7 0.00 0.04 0.04 87 1007.8
20260902023325 61 214 6.1 7.0 0.00 0.04 0.04 86 1007.8
20260902022825 61 205 1.7 5.2 0.00 0.04 0.04 87 1007.8
20260902022325 61 186 3.5 10.4 0.00 0.04 0.04 86 1007.8
20260902021825 61 228 4.3 10.4 0.00 0.04 0.04 86 1007.8
20260902021326 61 177 4.3 10.4 0.00 0.04 0.04 86 1007.8
20260902020825 61 186 6.1 12.2 0.00 0.04 0.04 86 1007.9
20260902020325 61 184 6.1 12.2 0.00 0.04 0.04 86 1008.0
20260902015826 62 173 6.1 12.2 0.00 0.04 0.04 86 1007.9
20260902015325 62 200 6.1 10.4 0.00 0.04 0.04 86 1007.8
20260902014825 62 162 6.1 10.4 0.00 0.04 0.04 86 1007.7
20260902014326 62 156 7.0 11.3 0.00 0.04 0.04 86 1007.7
20260902013825 62 204 5.2 11.3 0.00 0.04 0.04 87 1007.7
20260902013325 62 190 3.5 11.3 0.00 0.04 0.04 86 1007.8
20260902012825 62 154 7.0 9.6 0.00 0.04 0.04 87 1007.8
20260902012325 62 193 5.2 8.7 0.00 0.04 0.04 87 1007.7
20260902011825 62 246 5.2 13.9 0.00 0.04 0.04 87 1007.7
20260902011326 61 201 3.5 13.9 0.00 0.04 0.04 87 1007.7
20260902010825 61 196 7.0 13.9 0.00 0.04 0.04 86 1007.8
20260902010325 62 196 8.7 13.0 0.00 0.04 0.04 86 1007.8
20260902005825 62 201 5.2 13.0 0.00 0.04 0.04 86 1007.8
20260902005325 62 205 3.5 13.0 0.00 0.04 0.04 86 1007.8
20260902004825 62 184 7.8 12.2 0.00 0.04 0.04 86 1007.8
20260902004326 62 187 7.0 13.9 0.00 0.04 0.04 86 1007.9
20260902003825 62 187 6.1 13.9 0.00 0.04 0.04 86 1007.9
20260902003325 62 184 7.8 13.9 0.00 0.04 0.04 86 1008.0
20260902002825 62 194 7.0 13.0 0.00 0.04 0.04 85 1008.1
20260902002325 62 200 7.0 13.0 0.00 0.04 0.04 86 1008.1
20260902001825 62 184 5.2 15.6 0.00 0.04 0.04 86 1008.2
20260902001328 62 211 5.2 15.6 0.00 0.04 0.04 86 1008.1
20260902000825 62 182 4.3 15.6 0.00 0.04 0.04 85 1008.1
20260902000325 62 210 5.2 12.2 0.00 0.04 0.04 85 1008.2
20260901235826 62 177 8.7 16.5 0.00 0.04 0.04 85 1008.1
20260901235325 62 191 6.1 16.5 0.00 0.04 0.04 85 1008.2
20260901234825 62 186 10.4 16.5 0.00 0.04 0.04 85 1008.3
20260901234326 63 189 8.7 15.6 0.00 0.04 0.04 85 1008.2
20260901233825 63 196 7.0 13.0 0.00 0.04 0.04 85 1008.2
20260901233325 63 207 7.0 18.2 0.00 0.04 0.04 85 1008.2